Location: Middelsbur
(53.6609°N, 7.5020°E)
Time: 23:51:49
(UTC+00:00)

COSMOS 2428 - Pass Details

Date: 06 July 2020
Orbit: 844 x 859 km, 70.9° (Epoch: 14 August)

Event Time Altitude Azimuth Distance (km) Brightness Sun altitude
Rises 21:46:47 0° 213° (SSW) 3,393 5.5 -10.3°
Reaches altitude 10° 21:49:13 10° 214° (SSW) 2,462 4.8 -10.4°
Maximum altitude 21:54:54 83° 303° (WNW) 858 2.8 -10.8°
Drops below altitude 10° 22:00:37 10° 32° (NNE) 2,481 5.7 -11.1°
Sets 22:03:04 0° 33° (NNE) 3,422 6.4 -11.2°
